Flag for Japan Weather past 2 weeks in Sendai, Japan

Now
52 °F

Clear.


Feels Like: 52 °F
Forecast: 37 / 69 °F
Wind: 1 mph from North

Location: Sendai Airport

Current Time: Apr 25, 2015 at 11:57:58 PM

Latest Report: Apr 25, 2015 at 9:00 PM


Visibility: 10 mi

Pressure: 30.09 "Hg

Humidity: 67%

Dew point: 41 °F

Location of SendaiLocation

Historic Weather in Sendai — Graph

°F

Sendai temperature yesterday

Maximum temperature yesterday: 63 °F (at 9:00 AM)
Minimum temperature yesterday: 48 °F (at 6:00 AM)
Average temperature yesterday: 58 °F

Past Weeks' High & Low Weather Summary

 TemperatureHumidityPressure
High70 °F (Apr 18, 1:00 PM)100% (Apr 11, 7:00 AM)30.45 "Hg (Apr 11, 7:00 AM)
Low37 °F (Apr 12, 6:00 AM)17% (Apr 18, 1:00 PM)29.50 "Hg (Apr 15, 3:00 PM)
Average55 °F71%29.97 "Hg
* Reported Apr 10 9:00 PM — Apr 25 9:00 PM, Sendai, Weather by CustomWeather, © 2015

Note: Actual official high and low records may vary slightly from our data, if they occured in-between our weather recording intervals... More about our weather records

Advertising

Sendai weather history for previous 24 hours

 ConditionsComfort  
Time TempWeatherWind HumidityBarometerVisibility
9:00 PM
Sat, Apr 25
52 °FClear.1 mph67%30.09 "Hg10 mi
8:00 PM54 °FClear.6 mph58%30.09 "Hg10 mi
7:00 PM54 °FClear.7 mph63%30.07 "Hg10 mi
6:00 PM57 °FSunny.8 mph41%30.07 "Hg10 mi
5:00 PM61 °FPassing clouds.10 mph34%30.04 "HgN/A
4:00 PM61 °FPassing clouds.14 mph36%30.04 "HgN/A
3:00 PM61 °FPassing clouds.12 mph39%30.01 "HgN/A
2:00 PM63 °FPassing clouds.12 mph37%30.01 "HgN/A
1:00 PM63 °FPassing clouds.14 mph39%30.01 "HgN/A
12:00 PM63 °FPassing clouds.15 mph39%30.04 "HgN/A
11:00 AM61 °FPassing clouds.14 mph45%30.04 "HgN/A
10:00 AM61 °FPassing clouds.12 mph48%30.07 "HgN/A
9:00 AM61 °FPassing clouds.6 mph36%30.07 "HgN/A
8:00 AM57 °FPassing clouds.7 mph51%30.07 "HgN/A
7:00 AM55 °FSunny.6 mph59%30.07 "Hg10 mi
6:00 AM52 °FPassing clouds.5 mph67%30.07 "HgN/A
Weather by CustomWeather, © 2015

See weather overviewHow to use our weather pages